Hourly Data Report for September 13, 2017

All times are specified in Local Standard Time (LST). Add 1 hour to adjust for Daylight Saving Time where and when it is observed.

WINNIPEG A CS
MANITOBA

49°55'00.000" N
97°14'58.000" W
238.70 m
502S001
71849
XWG

Download Data

Hourly Data (September 2017)
Hourly Data Report for September 13, 2017
Temp Definition
°C
Dew Point Temp Definition
°C
Rel Hum Definition
%
Wind Dir Definition
10's deg

Wind Spd Definition
km/h
Visibility Definition
km
Stn Press Definition
kPa
Hmdx Definition


Wind Chill Definition


Weather Definition


TIME
00:00 17.4 12.5 73 2 13   97.74     LegendNANA
01:00 16.6 11.4 72 2 19   97.77     LegendNANA
02:00 15.4 11.0 75 2 14   97.80     LegendNANA
03:00 14.8 11.5 80 1 18   97.81     LegendNANA
04:00 14.0 11.0 82 2 14   97.85     LegendNANA
05:00 13.5 11.0 85 2 17   97.90     LegendNANA
06:00 13.1 11.0 87 2 17   97.92     LegendNANA
07:00 13.5 11.0 85 2 22   97.96     LegendNANA
08:00 15.0 11.2 78 3 23   97.98     LegendNANA
09:00 17.4 11.0 66 4 24   97.97     LegendNANA
10:00 19.3 10.3 56 5 18   97.93     LegendNANA
11:00 21.0 8.8 46 3 21   97.93     LegendNANA
12:00 22.2 8.1 40 3 23   97.93     LegendNANA
13:00 20.9 7.7 42 3 26   97.93     LegendNANA
14:00 20.3 8.5 47 3 24   97.88     LegendNANA
15:00 19.3 9.7 54 1 25   97.94     LegendNANA
16:00 18.2 9.1 55 2 29   97.91     LegendNANA
17:00 17.8 8.5 54 3 25   97.91     LegendNANA
18:00 17.4 8.5 56 2 19   97.99     LegendNANA
19:00 17.0 9.0 59 1 20   98.00     LegendNANA
20:00 15.4 10.5 73 3 27   97.96     LegendNANA
21:00 15.7 10.3 70 6 15   97.91     LegendNANA
22:00 14.9 9.3 69 5 10   97.92     LegendNANA
23:00 14.2 9.3 73 2 14   97.89     LegendNANA

Notes on Data Quality.

Legend

  • E = Estimated
  • M = Missing
  • NA = Not Available
  • ‡ = Partner data that is not subject to review by the National Climate Archives
Date modified: